Effingham, IL

3:49 PM CDT on March 27, 2017 (GMT -0500)
Effingham

Weather History for K1H2 - May, 2013

Change the Weather History Date:

Friday, May 24, 2013

  Actual Average (KMTO) Record (KMTO)
Temperature  
Mean Temperature 54 °F -  
Max Temperature 68 °F 76 °F 89 °F (1950)
Min Temperature 41 °F 55 °F 34 °F (1956)
Degree Days  
Heating Degree Days 10    
Growing Degree Days 4 (Base 50)    
Moisture  
Dew Point 40 °F    
Average Humidity 62    
Maximum Humidity 93    
Minimum Humidity 31    
Precipitation  
Precipitation 0.00 in - - ()
Sea Level Pressure  
Sea Level Pressure 30.33 in    
Wind  
Wind Speed 5 mph (North)    
Max Wind Speed 10 mph    
Max Gust Speed -    
Visibility 10 miles    
Events      
Averages and records for this station are not official NWS values.
T = Trace of Precipitation, MM = Missing Value Source: NWS Daily Summary

Daily Weather History Graph

Daily Weather History Graph

Search for Another Location

Airport or City:

Trip Planner

Search our weather history database for the weather conditions in past years. The results will help you decide how hot, cold, wet, or windy it might be!

Date:

Astronomy

May. 24, 2013 Rise Set
Actual Time 5:34 AM CDT 8:08 PM CDT
Civil Twilight 5:03 AM CDT 8:39 PM CDT
Nautical Twilight 4:24 AM CDT 9:17 PM CDT
Astronomical Twilight 3:41 AM CDT 10:01 PM CDT
Moon 7:50 PM CDT (5/24) 5:05 AM CDT (5/24)
Length of Visible Light 15h 36m
Length of Day
14h 34m
Full, 100% of the Moon is Illuminated
May 24
Full
May 24
Full
May 31
Last Quarter
Jun 8
New
Jun 16
First Quarter

Hourly Weather History & Observations

Time (CDT) Temp. Windchill Dew Point Humidity Pressure Visibility Wind Dir Wind Speed Gust Speed Precip Events Conditions
12:15 AM 47.7 °F - 41.9 °F 80% 30.26 in 10.0 mi NNE 3.5 mph - N/A   Clear
12:35 AM 47.3 °F - 41.4 °F 80% 30.27 in 10.0 mi Calm Calm - N/A   Clear
12:55 AM 46.6 °F - 41.0 °F 81% 30.27 in 10.0 mi North 3.5 mph - N/A   Clear
1:15 AM 46.4 °F 44.3 °F 40.3 °F 79% 30.27 in 10.0 mi NNE 4.6 mph - N/A   Clear
1:35 AM 46.8 °F - 37.8 °F 71% 30.27 in 10.0 mi NNE 9.2 mph - N/A   Clear
1:55 AM 45.9 °F 42.9 °F 38.1 °F 74% 30.28 in 10.0 mi North 5.8 mph - N/A   Clear
2:15 AM 45.7 °F 42.7 °F 37.0 °F 72% 30.28 in 10.0 mi North 5.8 mph - N/A   Clear
2:35 AM 45.5 °F 41.8 °F 36.0 °F 69% 30.28 in 10.0 mi NNE 6.9 mph - N/A   Clear
2:55 AM 44.6 °F 40.7 °F 36.5 °F 73% 30.28 in 10.0 mi North 6.9 mph - N/A   Clear
3:15 AM 44.2 °F 39.7 °F 35.8 °F 72% 30.27 in 10.0 mi North 8.1 mph - N/A   Clear
3:35 AM 43.9 °F 38.3 °F 34.7 °F 70% 30.27 in 10.0 mi North 10.4 mph - N/A   Clear
3:55 AM 43.7 °F 39.7 °F 34.0 °F 69% 30.27 in 10.0 mi North 6.9 mph - N/A   Clear
4:15 AM 43.2 °F 38.4 °F 33.3 °F 68% 30.28 in 10.0 mi North 8.1 mph - N/A   Clear
4:35 AM 42.3 °F 37.9 °F 32.9 °F 69% 30.28 in 10.0 mi North 6.9 mph - N/A   Clear
4:55 AM 41.9 °F 40.0 °F 33.4 °F 72% 30.29 in 10.0 mi North 3.5 mph - N/A   Clear
5:15 AM 41.4 °F 38.4 °F 33.8 °F 74% 30.30 in 10.0 mi NNE 4.6 mph - N/A   Clear
5:35 AM 41.0 °F 39.0 °F 33.8 °F 76% 30.31 in 10.0 mi North 3.5 mph - N/A   Clear
5:55 AM 41.0 °F 38.0 °F 34.0 °F 76% 30.32 in 10.0 mi North 4.6 mph - N/A   Clear
6:15 AM 41.4 °F 38.4 °F 34.7 °F 77% 30.33 in 10.0 mi North 4.6 mph - N/A   Clear
6:35 AM 41.9 °F 39.0 °F 34.9 °F 76% 30.35 in 10.0 mi NNW 4.6 mph - N/A   Clear
6:55 AM 43.2 °F 39.0 °F 35.1 °F 73% 30.36 in 10.0 mi North 6.9 mph - N/A   Clear
7:15 AM 44.2 °F 39.7 °F 36.0 °F 73% 30.37 in 10.0 mi North 8.1 mph - N/A   Clear
7:35 AM 45.3 °F 40.6 °F 36.5 °F 71% 30.37 in 10.0 mi North 9.2 mph - N/A   Clear
7:55 AM 46.4 °F 42.9 °F 37.2 °F 70% 30.38 in 10.0 mi NNE 6.9 mph - N/A   Clear
8:15 AM 47.3 °F - 38.5 °F 71% 30.38 in 10.0 mi NNE 8.1 mph - N/A   Clear
8:35 AM 48.0 °F - 39.0 °F 71% 30.38 in 10.0 mi North 9.2 mph - N/A   Clear
8:55 AM 48.9 °F - 39.7 °F 71% 30.39 in 10.0 mi NE 4.6 mph - N/A   Clear
9:15 AM 50.2 °F - 41.0 °F 71% 30.39 in 10.0 mi North 5.8 mph - N/A   Clear
9:35 AM 52.5 °F - 42.1 °F 68% 30.39 in 10.0 mi NE 6.9 mph - N/A   Clear
9:55 AM 53.6 °F - 43.0 °F 67% 30.40 in 7.0 mi North 6.9 mph - N/A   Clear
10:15 AM 54.5 °F - 42.4 °F 64% 30.40 in 10.0 mi North 8.1 mph - N/A   Clear
10:35 AM 55.0 °F - 42.8 °F 63% 30.40 in 10.0 mi NNW 8.1 mph - N/A   Clear
10:55 AM 55.4 °F - 42.8 °F 63% 30.39 in 10.0 mi North 5.8 mph - N/A   Clear
11:15 AM 57.0 °F - 43.5 °F 61% 30.39 in 10.0 mi North 8.1 mph - N/A   Clear
11:35 AM 57.6 °F - 42.3 °F 57% 30.39 in 10.0 mi NNW 8.1 mph - N/A   Clear
11:55 AM 58.8 °F - 41.7 °F 53% 30.39 in 10.0 mi North 9.2 mph - N/A   Clear
12:15 PM 59.7 °F - 40.6 °F 49% 30.39 in 10.0 mi North 8.1 mph - N/A   Clear
12:35 PM 60.6 °F - 39.9 °F 46% 30.38 in 10.0 mi North 8.1 mph - N/A   Clear
12:55 PM 61.3 °F - 41.4 °F 48% 30.38 in 10.0 mi NNW 9.2 mph - N/A   Clear
1:15 PM 63.0 °F - 42.4 °F 47% 30.37 in 10.0 mi North 6.9 mph - N/A   Clear
1:35 PM 63.1 °F - 40.1 °F 43% 30.38 in 10.0 mi North 8.1 mph - N/A   Clear
1:55 PM 63.9 °F - 38.5 °F 39% 30.37 in 10.0 mi NNE 6.9 mph - N/A   Clear
2:15 PM 64.9 °F - 40.5 °F 41% 30.37 in 10.0 mi North 5.8 mph - N/A   Clear
2:35 PM 65.8 °F - 38.5 °F 37% 30.36 in 10.0 mi NNW 8.1 mph - N/A   Clear
2:55 PM 66.0 °F - 37.8 °F 35% 30.36 in 10.0 mi NNW 6.9 mph - N/A   Clear
3:15 PM 66.4 °F - 38.1 °F 35% 30.35 in 10.0 mi North 5.8 mph - N/A   Clear
3:35 PM 66.9 °F - 37.9 °F 34% 30.35 in 10.0 mi Calm Calm - N/A   Clear
3:55 PM 67.1 °F - 36.5 °F 32% 30.34 in 10.0 mi Calm Calm - N/A   Clear
4:15 PM 67.1 °F - 37.0 °F 33% 30.33 in 10.0 mi Calm Calm - N/A   Clear
4:35 PM 67.5 °F - 36.5 °F 32% 30.32 in 10.0 mi Calm Calm - N/A   Clear
4:55 PM 67.8 °F - 37.0 °F 32% 30.32 in 10.0 mi East 4.6 mph - N/A   Clear
5:15 PM 68.4 °F - 37.6 °F 32% 30.31 in 10.0 mi East 4.6 mph - N/A   Clear
5:35 PM 67.8 °F - 35.8 °F 31% 30.30 in 7.0 mi East 3.5 mph - N/A   Clear
5:55 PM 67.5 °F - 36.3 °F 32% 30.29 in 10.0 mi Calm Calm - N/A   Clear
6:15 PM 67.1 °F - 36.9 °F 33% 30.29 in 10.0 mi Calm Calm - N/A   Clear
6:35 PM 67.1 °F - 37.0 °F 33% 30.29 in 10.0 mi SE 3.5 mph - N/A   Clear
6:55 PM 66.2 °F - 36.7 °F 34% 30.29 in 10.0 mi Calm Calm - N/A   Clear
7:15 PM 65.7 °F - 36.3 °F 34% 30.29 in 10.0 mi Calm Calm - N/A   Clear
7:35 PM 64.8 °F - 37.8 °F 37% 30.28 in 10.0 mi Calm Calm - N/A   Clear
7:55 PM 60.8 °F - 45.7 °F 57% 30.28 in 10.0 mi Calm Calm - N/A   Clear
8:15 PM 58.3 °F - 46.2 °F 64% 30.28 in 10.0 mi Calm Calm - N/A   Clear
8:35 PM 56.3 °F - 45.0 °F 66% 30.28 in 10.0 mi Calm Calm - N/A   Clear
8:55 PM 55.2 °F - 46.6 °F 73% 30.29 in 10.0 mi Calm Calm - N/A   Clear
9:15 PM 54.0 °F - 47.3 °F 78% 30.29 in 10.0 mi Calm Calm - N/A   Clear
9:35 PM 52.2 °F - 46.0 °F 80% 30.31 in 10.0 mi Calm Calm - N/A   Clear
9:55 PM 51.8 °F - 48.0 °F 87% 30.31 in 10.0 mi Calm Calm - N/A   Clear
10:15 PM 51.3 °F - 45.9 °F 82% 30.33 in 10.0 mi Calm Calm - N/A   Clear
10:35 PM 50.7 °F - 45.5 °F 82% 30.33 in 10.0 mi Calm Calm - N/A   Clear
10:55 PM 49.6 °F - 46.4 °F 89% 30.32 in 10.0 mi Calm Calm - N/A   Clear
11:15 PM 50.0 °F - 47.3 °F 90% 30.33 in 10.0 mi Calm Calm - N/A   Clear
11:35 PM 49.3 °F - 47.3 °F 93% 30.33 in 10.0 mi Calm Calm - N/A   Clear
11:55 PM 48.9 °F - 46.9 °F 93% 30.33 in 10.0 mi Calm Calm - N/A   Clear